Regional Weather Roundup
Issued by NWS

Home | Current Version | Previous Version | Graphics & Text | Print | Product List | Glossary On
Versions: 1 2 3 4 5 6 7 8 9 10 11 12 13 14 15 16 17 18 19 20 21 22 23 24 25 26 27
000
ASUS45 KBOI 170510
RWRID

IDAHO REGIONAL WEATHER ROUNDUP
NATIONAL WEATHER SERVICE BOISE ID
1100 PM MDT MON OCT 16 2017

NOTE: "FAIR" INDICATES FEW OR NO CLOUDS BELOW 12000 FEET
WITH NO SIGNIFICANT WEATHER AND/OR OBSTRUCTIONS TO VISIBILITY

IDZ012-014-170600-
SOUTHWEST IDAHO


CITY           SKY/WX    TMP DP  RH WIND       PRES   REMARKS
BOISE          CLEAR     47  31  53 SE3       30.26R
CALDWELL       CLEAR     41  32  70 MISG      30.26R
MOUNTAIN HOME  CLEAR     38  25  57 E3        30.26R
$$

IDZ016-017-170600-
SOUTHCENTRAL IDAHO


CITY           SKY/WX    TMP DP  RH WIND       PRES   REMARKS
BURLEY         CLEAR     40  26  57 CALM      30.28R
JEROME         PTCLDY    48  25  40 S3        30.29R
TWIN FALLS     PTCLDY    40  27  59 S10       30.29R WCI  33
$$

IDZ019>023-170600-
SOUTHEAST IDAHO


CITY           SKY/WX    TMP DP  RH WIND       PRES   REMARKS
IDAHO FALLS    CLOUDY    32  28  85 NW5       30.32S WCI  27
POCATELLO      CLOUDY    37  27  67 N5        30.31S WCI  33
REXBURG        CLOUDY    34  25  69 NE8       30.33S WCI  27
$$

IDZ006-010-011-018-031-032-170600-
CENTRAL IDAHO MOUNTAINS


CITY           SKY/WX    TMP DP  RH WIND       PRES   REMARKS
MCCALL         CLEAR     34  28  79 CALM      30.28S
HAILEY         CLEAR     41  25  52 NW12      30.34R
STANLEY          N/A     31  23  72 VRB3      30.37R
SALMON         CLEAR     35  28  75 CALM      30.27R
CHALLIS        CLEAR     37  25  61 CALM      30.29R
$$

IDZ002-004-006-007-026-170600-
NORTHERN IDAHO


CITY           SKY/WX    TMP DP  RH WIND       PRES   REMARKS
LEWISTON       CLEAR     53  34  48 W3        30.11S
LOWELL           N/A     42  41  96 CALM      30.23R
COEUR D`ALENE  CLEAR     45  36  70 CALM      30.11R
MULLAN PASS    CLEAR     44  21  40 VRB3      30.18F
$$




USA.gov is the U.S. government's official web portal to all federal, state and local government web resources and services.